Wind_Speed
25 25 28 29 27 25 24 23 23 21 15 13 12 12 12 12 12 9 6 8 11 16 20 22 23 24 24 19 16 20 21 21 24 28 32 31 30 28 25 23 23 23 22 22 23 23 23 23 24 25 24 23 22 22 22 23 23 23 23 23 21 20 20 20 19 19 19 19 19 17 16 15 14 14 13 13 12 11 11 10 9 9 9 9 8 8
24 26 30 28 24 22 22 22 23 23 20 16 15 15 13 12 13 9 6 8 11 17 20 22 26 29 27 23 19 21 23 24 25 28 30 30 30 29 25 23 22 21 22 23 24 24 24 24 24 25 26 25 23 23 23 23 23 24 24 24 22 21 21 20 18 18 18 18 17 15 14 14 14 14 13 12 11 11 11 10 10 9 9 9 8 7
24 27 28 23 19 18 18 19 22 23 23 20 17 17 15 14 12 8 7 9 12 13 19 22 28 31 29 26 22 23 24 23 23 23 25 26 28 30 27 24 23 22 23 25 26 26 26 26 26 27 28 27 24 23 23 23 23 24 24 24 23 22 21 20 18 17 17 17 16 16 14 13 14 15 14 13 12 12 11 11 11 10 9 9 8 7
24 25 23 18 16 17 16 15 17 21 24 23 21 20 19 14 11 8 8 11 15 11 17 22 23 27 29 27 25 25 24 23 22 22 24 25 26 27 25 23 23 24 25 26 27 28 27 27 28 28 29 28 26 23 22 23 23 24 24 25 24 22 21 20 18 17 18 18 17 18 17 15 16 16 16 14 14 13 12 11 11 10 9 9 8 7
21 16 14 16 15 15 15 15 15 18 21 24 24 23 20 13 10 10 9 14 17 12 14 19 17 23 29 27 28 29 26 25 24 24 27 28 28 27 26 25 23 23 24 25 26 28 28 28 28 29 29 28 27 25 23 23 22 22 22 23 24 22 20 20 19 19 20 20 20 21 21 20 19 18 17 15 13 12 11 11 11 10 9 9 8 8
14 7 8 12 12 12 14 15 17 17 18 21 24 25 19 11 8 10 10 14 15 12 14 16 11 15 26 30 29 29 30 29 27 26 28 29 31 32 31 29 25 23 24 23 24 26 27 27 27 28 28 28 28 26 24 23 22 21 21 22 23 22 21 21 21 20 21 22 22 23 22 21 19 17 14 13 11 10 10 10 11 10 9 9 9 9
11 7 7 9 8 9 10 12 16 17 18 20 22 22 15 10 10 11 12 13 13 12 13 14 12 12 20 29 30 29 31 31 28 28 28 30 33 35 34 32 28 26 25 25 25 25 26 25 25 27 28 29 28 26 24 24 23 22 21 21 22 22 21 22 22 22 23 24 24 23 21 19 17 14 12 11 11 11 11 11 11 11 10 9 9 9
11 7 9 10 11 13 13 12 11 13 19 20 17 15 11 11 12 13 14 12 13 14 12 14 19 15 15 26 29 30 32 32 32 31 30 32 34 35 36 34 31 29 27 26 26 26 26 25 24 24 26 26 26 25 25 24 24 23 22 21 21 21 21 23 23 24 25 24 24 23 21 19 17 14 12 12 12 12 13 12 12 11 11 10 10 10
9 7 6 6 9 14 14 12 8 11 20 14 6 9 11 10 12 13 13 13 13 13 11 16 21 13 11 23 26 28 34 34 34 35 33 33 35 36 36 35 33 31 29 28 26 26 26 24 22 21 22 23 24 25 25 25 24 24 23 22 22 22 22 23 24 25 25 24 24 23 22 21 18 16 16 15 14 14 14 14 13 12 11 11 10 10
10 7 4 2 4 8 10 9 6 9 17 11 4 10 13 11 14 14 14 15 12 9 11 17 23 14 8 18 24 26 34 35 35 36 34 33 33 34 36 35 34 33 32 31 28 27 26 24 21 20 21 22 23 24 24 24 24 25 25 24 23 23 22 23 24 25 25 25 24 23 22 22 20 19 18 18 17 17 16 15 14 13 12 11 11 11
11 7 3 2 5 8 10 9 5 6 13 14 11 16 16 14 16 15 16 16 8 6 11 16 26 22 6 11 23 27 29 28 30 32 34 35 34 34 34 34 35 35 35 34 30 28 27 25 23 23 23 22 23 23 24 25 26 26 27 26 24 23 23 23 24 24 25 25 25 23 22 22 21 20 20 20 19 18 17 15 15 14 13 12 12 12
13 8 6 6 8 8 10 11 8 6 11 13 11 13 12 10 10 10 13 12 5 4 9 14 26 27 13 10 19 23 23 21 23 27 29 33 35 35 35 34 34 35 35 35 33 31 29 28 27 26 25 25 24 24 25 26 27 28 28 27 26 25 25 24 24 24 24 25 25 24 23 22 22 21 21 20 19 17 16 14 14 14 14 13 12 12
12 10 8 8 9 8 8 12 11 9 11 11 10 10 8 4 3 4 6 6 5 5 6 12 22 24 19 17 16 19 23 22 22 24 25 28 32 35 35 34 34 35 36 36 35 34 32 31 30 27 26 26 27 26 26 27 28 29 30 29 28 27 26 26 24 23 23 25 25 24 24 23 22 21 21 20 19 17 15 14 14 14 13 13 11 10
9 8 9 10 8 2 2 6 10 11 13 11 7 6 5 3 3 2 3 0 2 6 7 11 15 14 16 18 16 19 22 20 20 20 20 24 28 31 33 33 35 35 37 37 37 36 35 33 31 28 26 26 27 27 27 27 28 29 30 31 30 28 27 27 25 23 23 24 24 24 24 24 23 22 21 21 20 18 16 15 15 14 13 12 11 9
7 6 8 9 6 4 4 2 3 8 11 9 5 3 3 2 2 2 4 2 3 6 10 13 9 7 10 11 13 17 16 16 18 17 17 21 26 31 33 34 36 36 36 37 38 38 37 35 32 29 27 26 26 27 28 28 28 29 30 31 30 29 29 28 27 25 23 23 23 24 24 25 24 23 22 22 22 20 18 17 16 15 14 13 11 10
4 4 5 5 5 4 5 6 2 6 8 6 5 5 3 1 1 2 4 5 3 2 5 10 6 4 8 7 10 14 11 11 13 14 16 20 24 32 36 35 36 36 35 35 37 39 38 37 35 32 30 27 26 26 28 30 30 31 31 31 30 30 30 29 28 27 24 23 23 23 24 25 25 24 23 23 22 21 20 18 17 16 14 13 12 13
1 3 4 3 2 2 5 9 5 3 5 5 4 4 5 3 3 5 3 4 3 2 2 8 6 4 6 7 9 12 10 9 11 13 17 19 21 27 32 33 34 35 35 34 35 37 38 37 36 34 32 29 27 27 28 30 31 31 31 30 30 31 30 30 29 28 26 24 24 23 23 24 25 25 24 24 23 21 20 20 19 18 16 15 14 15
4 3 3 3 1 1 5 6 2 1 4 2 2 2 5 5 3 3 1 1 3 2 2 7 5 3 4 5 9 11 10 9 10 12 16 21 24 24 24 25 28 31 33 33 33 35 37 38 37 35 33 31 28 26 27 29 30 30 30 30 31 31 32 31 29 28 27 26 25 24 24 24 24 25 24 24 23 22 22 22 21 20 19 17 16 16
8 6 5 5 3 2 4 3 2 4 9 6 3 1 3 4 1 0 1 0 1 1 2 4 6 9 13 14 15 14 12 11 11 13 15 21 27 28 24 21 22 26 31 34 35 36 37 37 37 36 34 32 30 27 26 27 29 29 30 30 31 31 31 31 30 29 28 27 26 25 24 24 23 23 24 25 25 24 24 23 23 22 21 19 18 18
9 7 4 5 4 5 6 6 6 6 7 5 3 3 4 4 1 1 2 2 2 2 2 1 3 8 15 19 19 17 15 16 16 16 15 18 25 31 30 25 22 23 28 32 34 35 35 35 35 36 35 33 31 28 27 28 29 29 29 31 32 32 31 31 31 30 28 28 27 26 25 25 24 24 24 25 26 26 24 23 23 23 22 21 20 19
8 8 7 10 10 9 10 12 14 11 5 4 4 5 7 5 2 2 2 4 4 0 1 1 2 7 16 17 16 17 15 16 18 19 17 17 22 29 32 32 27 22 23 30 33 33 34 34 33 34 34 34 32 30 29 29 29 29 30 31 32 33 33 33 32 31 30 28 28 27 27 27 26 25 25 26 27 26 25 23 22 22 22 22 22 21
7 9 13 16 15 13 15 14 11 7 5 7 11 14 15 11 6 2 1 4 6 4 4 2 2 6 15 16 14 16 15 15 18 20 19 17 21 25 28 32 32 26 22 27 31 32 33 33 31 32 34 35 34 33 31 30 30 30 31 32 32 33 34 34 34 33 31 30 29 28 28 27 27 27 26 27 27 26 25 24 22 22 23 23 23 22
8 10 12 15 15 16 14 8 4 6 7 7 10 12 13 13 12 8 2 6 10 8 8 5 4 3 12 15 15 17 17 16 18 21 20 18 20 24 24 26 30 29 25 25 29 31 32 32 31 31 33 34 34 33 31 31 30 30 31 32 33 34 35 35 34 34 32 31 30 29 28 28 28 28 28 28 28 27 26 25 23 23 23 23 23 23
8 10 12 14 13 10 4 5 9 12 11 8 7 8 9 10 13 9 2 5 9 8 10 7 3 3 8 14 16 17 16 14 18 22 23 20 20 24 24 21 22 27 28 28 29 31 31 32 32 32 34 34 34 33 32 31 31 30 30 31 33 34 35 35 35 34 34 33 32 31 30 30 30 30 30 30 29 28 27 26 25 24 24 23 23 23
7 7 11 12 8 5 5 6 7 9 7 4 3 5 6 8 9 4 3 4 3 4 11 8 3 4 8 13 15 16 13 11 15 19 22 22 20 23 25 21 20 26 32 33 33 33 34 35 34 35 34 34 33 32 32 32 31 30 29 30 32 33 34 34 35 35 35 34 33 32 32 32 31 32 32 31 30 29 28 28 27 27 26 25 25 24
7 5 7 5 4 3 1 1 2 4 6 7 5 4 3 5 8 6 5 6 3 7 14 9 6 11 10 8 11 13 13 10 10 13 16 18 19 23 25 23 23 29 35 38 37 36 38 38 38 37 36 35 33 32 31 31 31 30 29 30 31 32 32 33 34 35 35 35 34 34 34 33 33 33 32 32 31 30 29 29 29 29 28 27 27 26
4 3 4 5 6 3 1 2 4 9 12 12 10 8 5 3 6 8 9 7 7 14 14 6 11 17 12 8 10 12 14 11 8 8 7 8 11 16 23 24 25 29 35 38 38 37 39 41 41 41 40 38 36 34 32 31 31 30 29 30 30 30 30 31 33 35 36 36 36 35 35 35 34 34 33 32 32 31 31 31 31 30 30 29 29 29
3 4 5 4 3 0 2 4 6 7 9 10 11 12 10 8 7 8 8 7 10 14 10 5 12 18 14 13 14 13 13 10 8 9 7 3 2 6 16 23 26 30 34 36 37 37 39 41 42 42 41 39 37 36 35 34 33 32 30 29 29 29 30 30 32 34 35 35 37 36 36 36 35 35 34 33 33 33 33 32 32 32 31 31 31 31
2 5 3 2 2 4 6 7 8 9 9 10 11 12 13 12 11 10 9 9 9 10 11 10 13 15 15 17 17 15 14 10 4 6 10 9 8 8 11 18 24 28 32 34 35 36 38 40 42 42 42 41 39 38 37 36 35 34 32 30 29 29 30 30 31 32 33 34 36 37 36 36 36 36 36 35 34 34 34 33 33 33 33 32 33 32
3 5 3 4 4 6 8 8 11 12 13 14 12 9 10 10 9 9 9 9 8 10 12 11 10 13 15 17 18 16 15 12 8 4 8 9 7 11 10 13 20 25 28 31 33 35 37 40 41 42 42 42 41 40 39 38 36 36 34 32 30 29 30 30 31 31 31 33 35 36 36 36 37 37 36 36 35 34 34 34 34 34 34 34 33 33
3 3 3 4 4 5 6 7 10 12 15 17 12 6 6 8 9 10 10 10 11 11 10 11 11 12 12 15 17 16 14 13 11 10 9 10 8 8 10 12 16 21 24 27 30 34 37 39 41 42 42 42 42 41 40 39 37 37 36 34 32 30 30 30 30 29 30 31 32 32 34 35 36 36 36 36 36 35 34 34 34 35 34 34 34 34
4 3 3 5 5 5 5 5 7 10 14 16 12 8 7 8 8 9 8 10 12 11 9 9 9 9 11 14 16 16 15 14 15 16 14 10 10 9 7 10 12 17 21 24 27 31 36 39 40 42 42 42 41 40 40 39 38 37 38 37 36 33 31 31 30 30 29 29 29 30 31 33 34 35 36 36 36 36 35 35 35 35 35 35 34 34
6 6 5 4 4 6 6 6 7 8 8 8 6 6 8 8 8 5 4 6 10 11 8 5 4 6 9 13 15 16 14 12 14 17 18 18 16 12 7 6 6 9 13 18 22 27 33 37 39 40 41 41 40 40 39 39 38 38 37 38 38 37 36 34 32 31 30 30 30 30 30 31 32 33 34 35 35 36 36 37 37 36 36 35 34 34
9 9 8 5 5 7 8 9 8 7 4 3 5 7 7 9 9 7 4 6 10 11 10 7 6 6 7 8 12 15 13 10 10 13 16 20 21 17 11 8 6 5 2 5 13 18 26 33 36 38 40 40 41 40 39 38 38 38 38 38 38 38 37 37 35 33 31 30 30 30 30 30 31 32 32 33 33 35 36 37 38 37 37 36 36 35
11 11 10 8 8 9 10 9 6 2 3 6 8 9 9 10 11 9 7 8 10 10 10 11 11 10 7 6 9 14 15 13 11 11 13 16 18 18 15 11 7 9 10 8 1 7 17 24 30 35 38 40 41 41 40 39 37 37 38 38 37 36 35 34 34 33 31 31 30 30 30 30 30 31 31 31 31 33 35 36 37 37 37 38 37 36
9 9 9 9 8 8 7 5 3 2 3 6 8 10 11 12 13 11 9 11 11 10 11 12 13 13 11 8 8 12 17 15 13 12 12 13 15 16 16 17 13 9 9 10 10 4 4 11 18 26 33 38 42 42 40 39 37 36 37 38 37 36 34 32 31 31 31 31 31 31 31 30 29 29 29 29 30 32 33 34 34 35 36 37 38 37
5 6 7 8 8 7 7 10 11 11 10 9 9 9 9 9 10 9 10 12 12 12 12 12 13 14 15 13 11 12 15 17 17 16 13 13 14 15 16 19 20 16 12 10 9 8 4 1 7 11 15 24 37 43 41 39 38 36 36 37 37 36 34 32 31 31 31 32 32 32 32 30 28 27 27 27 29 30 33 33 33 33 34 35 37 37
4 5 7 7 8 8 9 10 9 7 6 4 5 7 7 6 6 8 11 13 15 15 15 14 14 16 16 15 14 13 13 15 19 20 18 16 15 15 17 18 20 22 20 15 8 5 5 2 3 6 5 7 24 39 42 41 40 37 36 37 36 35 34 32 31 30 30 32 32 33 33 31 29 27 26 26 27 28 30 32 32 32 32 34 35 35
4 5 7 8 9 10 10 9 6 4 4 5 6 8 8 8 9 12 15 15 17 18 19 17 17 18 18 19 20 19 16 14 16 20 21 19 16 15 17 19 20 22 22 19 13 5 2 3 3 3 6 6 16 31 38 40 40 39 37 37 36 35 34 34 33 31 31 33 33 34 34 32 31 29 27 27 27 26 27 29 31 32 33 33 33 33
6 7 8 10 11 12 13 12 11 10 11 11 12 13 14 14 16 14 11 10 13 16 19 18 16 16 17 19 22 23 22 19 17 19 21 21 17 15 16 19 21 23 22 20 17 12 8 3 4 3 3 7 14 22 28 32 35 35 34 34 34 34 34 35 36 35 35 35 35 35 35 33 33 33 31 29 28 26 25 27 29 31 33 34 33 32
10 9 10 11 12 13 14 16 16 16 17 18 18 19 19 18 17 16 15 16 18 19 21 20 18 16 15 16 19 22 23 21 19 19 21 23 21 17 16 18 20 23 23 21 18 17 14 10 6 4 3 6 11 16 20 25 29 30 28 29 31 32 33 34 36 37 37 38 36 35 35 35 35 34 33 31 30 28 26 26 28 31 34 35 33 33
10 9 10 12 13 13 15 17 17 17 19 19 19 20 20 19 18 20 22 24 24 24 25 24 23 22 20 18 17 19 20 20 18 17 19 22 22 19 17 16 17 21 24 23 22 20 17 15 14 11 7 7 9 12 16 20 25 28 27 27 28 29 31 33 35 37 38 38 35 35 38 38 35 34 33 32 31 31 30 29 29 32 34 35 35 34
11 9 9 11 12 12 14 14 11 12 14 14 14 15 16 16 18 21 23 23 23 25 26 25 25 25 25 22 19 19 19 20 19 18 19 21 22 20 18 16 15 17 21 24 25 23 20 19 18 15 11 10 10 12 14 17 23 28 29 27 27 28 31 33 35 36 37 37 38 39 41 40 35 33 33 32 30 31 31 31 32 33 35 36 36 36
12 12 13 13 12 12 13 13 11 12 14 15 16 17 19 20 23 25 26 26 26 27 28 27 25 25 26 26 24 22 21 21 23 23 23 23 23 22 21 19 17 16 17 22 25 25 23 22 21 19 16 13 12 14 15 16 19 25 30 32 30 28 30 32 34 35 35 37 42 44 43 41 39 36 34 32 31 31 31 30 31 34 36 38 38 38
11 11 13 14 15 15 17 18 18 18 19 20 22 23 24 26 27 29 30 31 31 32 32 31 29 26 26 27 27 26 23 22 23 25 26 26 26 26 25 24 22 19 17 20 25 27 26 25 25 23 20 17 15 15 16 17 17 19 26 33 34 30 28 28 29 31 33 37 42 43 41 40 39 37 35 33 32 32 32 31 31 33 36 39 40 40
11 12 13 15 16 18 20 20 19 19 19 20 21 23 24 25 27 30 32 33 34 35 35 34 33 31 30 29 30 29 26 23 23 25 26 27 27 27 27 26 25 23 20 20 24 28 28 27 27 26 24 22 19 17 17 17 18 18 22 27 32 33 30 27 28 30 34 39 41 39 36 36 35 32 32 32 33 33 33 33 32 33 35 39 42 42
11 13 14 16 17 18 18 17 16 18 19 19 20 22 24 25 26 28 31 33 35 36 36 36 35 34 33 33 33 33 31 28 26 25 25 27 27 27 27 26 24 23 21 20 23 27 29 28 29 28 27 26 24 21 19 18 18 20 21 22 25 30 32 30 30 32 34 38 37 33 33 35 33 30 30 31 32 32 33 33 33 33 34 37 41 43
12 13 15 16 18 19 20 19 18 20 22 21 20 21 22 23 24 25 28 31 33 35 36 37 37 36 35 35 36 36 36 33 30 28 26 27 27 26 26 25 24 23 21 20 21 25 27 27 28 29 30 30 28 25 23 21 20 20 22 23 24 27 31 32 32 32 32 34 33 32 34 36 34 31 30 31 31 32 32 32 33 33 34 35 38 41
15 15 15 17 19 22 21 19 20 22 21 19 19 21 22 24 25 25 26 28 30 32 33 34 36 37 36 35 36 38 38 37 34 31 28 26 25 25 24 23 23 22 21 20 20 23 26 26 26 28 30 33 32 29 27 25 23 21 22 24 25 27 31 33 33 32 32 33 33 34 37 39 38 36 34 33 33 32 32 32 32 32 33 34 35 37
17 16 15 17 21 21 18 16 19 23 21 17 18 20 21 23 25 25 24 25 27 28 29 31 33 35 36 35 35 38 40 39 37 36 32 28 26 25 23 21 21 22 22 20 20 23 25 26 26 26 28 31 34 33 30 29 28 25 23 23 25 27 30 33 34 34 33 34 34 35 37 40 42 41 39 37 36 34 34 33 32 31 32 33 34 34
15 14 13 16 18 17 15 15 19 22 20 18 19 20 21 23 25 25 24 25 25 25 26 28 29 32 34 35 34 36 39 40 39 39 37 32 28 26 24 21 20 21 21 20 20 22 24 25 25 26 26 28 32 33 33 32 31 30 27 25 25 26 27 31 33 35 34 34 34 36 37 39 40 41 40 39 38 36 35 34 34 32 31 32 33 33
Wind_Direction
198 206 212 214 214 217 218 220 221 218 220 223 225 225 225 232 223 212 252 283 292 277 261 256 248 235 233 237 223 211 207 202 198 198 200 200 200 201 200 198 201 206 205 205 204 199 195 194 194 198 203 201 196 197 200 199 194 194 194 194 196 197 196 196 196 194 193 191 188 183 181 182 180 184 184 175 169 162 154 149 147 141 132 130 129 125
201 210 214 215 217 222 223 225 226 225 224 227 234 236 238 248 240 229 258 284 296 280 270 262 246 235 233 236 228 214 211 209 203 199 201 202 202 204 203 199 198 201 205 207 209 206 200 197 195 196 201 203 199 197 200 200 196 195 196 195 196 199 201 200 199 198 196 192 187 184 183 182 183 188 185 177 172 163 156 155 152 148 142 138 135 127
208 216 215 216 222 225 227 229 230 229 228 229 238 246 250 252 247 250 263 292 318 287 259 252 239 231 230 230 228 222 218 217 212 207 206 204 204 207 207 202 197 199 204 206 208 207 203 199 196 194 198 203 202 199 201 201 198 197 197 196 196 199 202 202 199 197 195 190 186 187 188 186 189 191 186 180 175 168 166 165 160 157 151 145 140 132
213 221 217 217 224 227 228 228 227 229 230 232 238 245 248 248 249 262 277 305 326 301 244 240 235 228 225 222 223 224 221 220 219 214 211 210 210 212 212 207 200 199 202 205 206 207 204 201 198 194 194 200 203 201 200 201 200 198 197 197 197 197 199 200 197 193 192 190 189 191 193 192 194 193 187 185 181 173 173 171 166 164 158 153 146 138
214 220 211 211 216 219 224 223 219 222 226 229 234 238 241 244 245 256 286 303 310 301 248 234 231 229 224 218 218 219 216 216 219 216 212 212 215 217 219 216 208 204 204 205 206 207 205 200 198 196 193 196 201 201 199 201 202 200 196 197 198 197 196 196 195 193 193 192 192 194 196 194 196 194 187 185 183 176 176 173 169 169 166 161 153 144
209 192 188 203 207 214 224 223 213 215 226 230 229 230 236 244 241 249 277 286 281 275 250 231 224 233 225 217 217 217 214 213 216 220 218 215 216 218 221 220 215 211 211 211 210 211 210 203 198 197 195 196 200 201 199 200 203 202 199 197 199 198 195 194 193 194 196 196 196 199 198 196 197 195 184 180 182 179 179 179 175 173 173 168 159 150
199 177 204 214 217 225 235 233 217 214 231 239 230 224 233 247 244 256 269 272 265 261 258 241 227 240 231 217 213 216 216 213 215 223 224 220 219 219 222 223 219 214 213 215 215 216 217 211 201 197 197 197 198 198 199 201 201 203 203 199 199 199 195 193 192 194 198 199 199 201 200 199 201 197 185 181 183 184 188 190 184 179 179 177 168 160
201 210 234 232 237 241 243 241 218 211 234 242 232 223 233 240 240 262 269 266 269 265 265 249 231 234 236 220 214 214 214 213 216 222 225 223 222 221 222 223 222 219 215 215 216 216 218 217 208 199 196 196 197 197 197 199 199 202 205 202 199 200 197 196 195 195 199 201 200 200 199 199 201 198 193 192 190 192 196 196 192 187 185 184 179 171
200 209 219 225 245 248 243 238 224 229 240 236 217 227 234 241 247 265 270 268 277 265 245 234 223 223 243 230 222 217 215 215 219 224 224 222 221 221 223 223 222 223 221 220 220 219 219 219 213 205 198 195 196 198 197 197 198 200 205 205 201 200 199 199 199 198 200 203 202 201 199 198 199 198 197 198 198 201 201 197 198 197 194 192 189 184
199 196 167 144 246 243 233 232 239 248 241 223 217 247 242 251 255 259 265 264 269 254 235 226 212 205 244 234 224 221 221 224 228 230 229 226 224 222 224 224 223 223 224 224 224 224 224 222 217 211 205 199 197 199 199 198 199 200 204 208 203 200 201 203 204 203 202 204 205 202 200 199 199 199 199 200 200 204 203 198 198 202 202 199 197 195
207 204 196 231 239 230 218 219 232 243 235 230 243 252 253 262 260 258 261 257 256 238 241 234 213 206 226 230 222 223 224 229 233 234 233 230 228 226 225 225 224 223 224 225 225 225 226 227 224 219 213 206 200 200 201 201 201 200 203 208 206 200 201 205 208 207 205 206 207 204 202 202 201 200 202 203 203 205 205 199 197 202 206 206 204 201
223 221 220 233 241 238 221 221 231 230 225 228 236 242 248 254 245 242 243 235 226 231 246 238 213 206 213 221 223 230 232 239 248 249 245 238 233 229 227 226 225 224 224 225 226 224 224 225 225 221 215 210 205 202 202 203 202 201 202 206 208 203 201 204 209 211 208 208 209 206 204 205 204 202 203 208 209 208 207 205 203 204 208 210 209 206
219 222 213 215 234 242 231 226 225 215 216 225 230 229 228 208 180 209 220 206 205 225 236 224 207 204 220 230 232 239 242 251 263 267 266 257 246 237 231 227 225 226 225 224 225 224 222 222 222 219 214 210 206 202 202 202 202 202 202 204 207 206 204 204 207 211 211 210 210 209 207 207 207 204 203 208 214 213 210 211 214 214 214 215 214 213
178 191 187 192 209 225 261 231 216 206 210 219 222 214 205 160 119 205 236 121 214 207 178 185 195 201 224 238 246 247 249 260 271 275 275 267 257 247 240 233 228 226 226 224 225 225 223 222 221 219 214 210 206 203 203 203 202 202 202 203 205 206 206 207 207 209 211 211 211 210 209 209 210 207 203 206 213 217 216 216 220 222 221 220 218 218
158 163 164 171 154 82 43 38 198 206 206 207 204 198 198 161 117 198 207 159 165 185 170 172 182 188 201 227 253 257 263 270 271 278 278 268 259 251 245 238 232 229 226 225 224 225 225 224 222 220 217 212 208 205 204 204 202 201 203 204 204 205 206 208 209 209 208 210 212 211 210 210 211 210 206 206 211 217 219 220 222 224 223 220 217 219
176 161 142 136 101 68 27 27 7 208 196 203 206 197 193 181 257 242 206 194 174 116 169 180 187 196 191 214 253 257 261 260 264 274 272 266 258 248 244 240 236 232 229 226 224 224 225 225 224 223 220 216 211 208 207 206 203 201 202 204 205 206 207 208 210 211 209 208 211 212 211 211 212 211 209 209 212 214 216 219 223 225 223 219 216 218
161 172 160 145 81 30 15 17 352 194 174 207 211 200 207 205 246 254 240 213 183 84 158 188 212 254 224 228 254 256 246 239 258 271 268 267 261 249 244 240 237 234 232 230 227 224 224 225 225 225 223 220 215 211 209 208 206 203 202 204 206 208 209 210 211 212 210 209 210 211 211 211 212 213 212 212 213 213 213 217 221 224 222 218 216 218
338 281 243 220 181 300 14 17 324 90 92 194 218 231 217 193 207 238 235 116 128 124 191 189 186 30 7 287 282 277 254 231 239 256 263 263 258 254 250 243 239 236 236 235 231 227 225 225 225 225 224 222 218 216 213 211 209 206 204 205 207 209 210 211 211 211 212 211 211 211 211 211 212 213 214 214 216 215 214 215 218 222 224 221 219 221
340 320 280 249 225 292 354 39 149 91 72 70 54 54 180 160 159 114 91 8 115 147 238 200 142 62 24 351 335 322 295 270 249 242 250 255 253 252 253 250 244 238 235 235 234 230 228 227 226 225 224 223 222 221 218 214 211 208 206 206 208 210 211 212 214 213 212 212 212 213 213 212 212 213 214 216 219 220 217 215 216 219 222 224 224 225
340 344 299 258 276 307 330 16 26 42 77 89 103 151 125 107 121 60 50 333 321 177 220 229 121 56 21 5 358 347 321 300 282 258 249 251 250 249 249 251 251 244 236 233 233 232 230 229 227 225 225 225 224 224 221 217 213 210 208 207 208 210 211 212 215 216 214 212 212 213 213 213 213 212 213 214 218 222 221 218 217 218 220 224 227 230
329 329 304 285 291 311 335 356 5 12 35 56 79 90 62 63 166 190 55 13 2 126 156 77 113 43 22 10 358 349 330 307 295 278 262 252 247 246 246 247 249 248 240 234 232 232 231 231 230 228 227 228 228 228 226 220 215 212 210 208 208 210 211 212 214 216 217 215 212 212 213 214 213 212 212 213 216 220 222 221 219 218 219 222 226 229
314 314 310 307 312 329 340 347 0 25 56 61 67 64 51 54 74 81 68 27 17 9 343 322 174 53 26 14 358 349 331 307 296 284 271 259 248 242 241 244 244 242 239 237 233 231 231 232 232 230 228 228 229 228 226 222 217 214 211 209 209 210 212 213 213 215 217 217 215 214 214 215 215 215 214 213 214 217 220 220 218 217 218 219 222 226
323 313 311 319 333 342 339 344 44 109 129 115 93 74 61 63 54 36 355 344 353 348 336 311 203 94 31 16 2 351 334 309 294 284 275 264 249 238 234 240 243 239 237 238 236 232 232 233 234 233 230 228 228 227 225 222 219 215 212 211 210 211 213 214 214 215 216 217 217 216 216 216 217 217 217 215 214 215 217 219 219 219 219 218 219 223
330 322 317 322 341 4 36 119 132 146 147 132 114 87 70 58 34 24 21 348 349 358 2 349 213 165 30 16 1 349 336 308 289 283 275 262 245 235 232 235 243 242 238 239 237 233 232 233 234 235 232 230 229 226 223 221 220 218 215 212 211 211 213 214 214 215 216 218 218 218 217 217 217 219 220 218 216 214 215 218 219 221 221 220 221 222
328 332 326 329 356 48 104 117 136 157 143 94 71 58 59 44 27 48 109 20 16 15 357 345 256 276 344 1 356 347 338 310 290 287 280 267 247 234 232 231 238 244 241 240 239 234 232 233 234 234 234 232 230 227 224 222 221 220 218 213 211 211 212 213 214 216 217 218 219 219 219 219 219 220 220 220 219 216 215 217 219 222 224 224 225 225
334 338 340 6 74 104 133 31 337 296 322 335 327 341 22 28 26 32 4 358 15 332 327 318 297 303 309 334 351 353 351 331 304 298 290 278 259 239 231 228 231 239 240 240 239 236 232 232 233 235 235 234 231 228 227 225 223 223 220 216 214 213 213 214 214 216 218 219 220 220 220 220 220 221 221 221 222 220 219 219 220 222 224 225 227 229
4 27 24 58 101 127 207 311 324 323 327 323 307 295 291 328 3 0 348 347 342 327 317 308 327 321 304 311 342 355 358 1 359 343 314 283 263 240 229 226 226 231 234 236 236 235 233 232 232 233 235 235 234 231 230 229 227 226 223 220 218 217 216 216 215 216 218 220 221 221 222 222 222 223 223 222 222 222 222 222 221 222 223 225 227 229
97 84 57 56 82 92 285 300 313 318 321 317 303 292 288 284 295 319 333 336 333 322 302 295 333 329 316 316 327 336 342 1 37 35 30 59 121 208 220 223 225 228 230 231 232 232 231 230 231 232 234 236 236 234 233 233 232 232 230 226 224 222 220 218 216 217 218 220 223 224 224 224 224 224 224 224 223 223 223 223 223 223 223 225 226 228
116 76 45 344 308 296 286 286 288 283 282 286 289 292 295 294 299 308 312 314 318 306 292 303 327 328 318 313 314 320 325 329 360 41 38 53 98 141 195 214 221 227 228 228 228 229 229 228 229 231 232 234 235 236 236 236 235 235 235 233 230 227 224 220 218 217 218 221 224 226 227 226 226 226 226 225 225 225 224 224 224 224 224 225 226 227
84 66 6 301 299 297 290 280 273 271 272 274 279 294 304 300 297 300 299 296 289 282 283 291 308 320 315 303 301 309 317 317 304 317 3 13 78 118 144 187 206 217 222 225 225 226 226 226 226 228 230 231 232 233 234 236 237 238 237 235 232 229 226 225 223 221 220 222 225 227 228 229 229 229 229 228 228 228 227 227 226 226 225 225 226 226
55 50 338 311 306 292 290 283 272 269 270 275 280 286 290 281 267 269 280 282 277 274 270 269 285 302 298 288 291 298 305 307 293 280 305 337 13 75 111 145 180 199 209 217 221 222 223 224 224 226 228 229 230 230 231 232 235 237 239 237 235 232 231 229 227 225 222 222 224 225 226 229 231 232 232 232 231 231 230 230 229 228 228 227 227 227
5 350 318 322 312 287 287 292 285 275 268 273 281 271 265 279 276 269 276 282 280 276 266 268 285 290 280 278 282 286 293 295 289 282 280 295 329 357 67 112 148 177 191 201 211 218 220 221 223 224 226 228 229 231 232 232 232 233 235 236 235 233 234 234 232 230 227 224 224 223 224 226 229 232 234 234 234 234 233 233 232 231 231 230 229 229
310 302 302 309 296 286 296 304 306 301 281 273 270 249 255 285 294 279 260 256 262 267 265 260 269 272 272 274 273 276 286 290 289 287 278 273 286 307 347 43 96 150 168 177 190 207 217 219 221 223 224 227 229 230 232 233 233 232 232 233 233 234 235 237 238 237 234 230 226 223 222 224 226 229 233 235 235 235 235 235 235 234 234 233 232 231
282 288 288 275 268 283 298 307 312 314 298 235 222 238 263 283 288 290 275 239 237 249 255 240 222 232 256 268 268 272 281 289 294 297 291 283 279 280 293 331 7 14 4 156 163 183 203 213 219 222 224 225 227 229 231 232 233 232 231 231 233 235 236 237 238 239 238 235 231 228 226 225 226 228 231 234 235 236 236 237 236 236 236 235 234 233
276 279 273 259 262 278 293 309 323 324 174 186 217 252 275 279 280 289 285 260 247 240 239 237 230 229 242 266 273 274 279 289 298 299 299 296 288 280 276 282 317 341 328 316 345 156 182 199 209 216 222 225 227 228 228 230 232 232 231 230 231 234 236 237 237 238 239 238 237 236 235 232 230 229 230 232 235 237 238 238 238 238 238 238 237 236
269 264 254 246 250 265 275 268 245 236 224 226 249 272 277 273 275 276 264 256 254 238 229 237 240 235 236 245 264 274 280 287 294 294 295 296 294 286 274 266 275 306 321 319 332 350 175 186 196 205 211 217 223 227 227 228 231 233 232 231 230 231 233 234 235 236 237 237 237 237 237 236 235 234 232 232 234 236 238 239 240 240 240 239 239 239
258 246 238 235 235 242 253 252 259 278 282 270 265 270 270 270 278 282 269 259 257 250 244 246 249 244 238 239 249 265 276 283 285 284 286 293 295 290 279 270 266 272 288 309 335 353 360 232 213 215 210 208 214 222 226 228 230 233 232 231 231 231 232 233 234 233 233 234 236 236 235 235 236 237 237 236 236 236 237 239 241 242 242 241 241 240
231 233 234 238 238 239 250 260 273 289 287 263 253 259 267 284 303 310 297 278 267 265 266 263 257 250 242 240 248 260 273 281 283 280 280 287 293 288 284 279 267 263 274 287 302 354 32 45 239 258 276 214 206 215 221 225 227 230 229 228 229 231 233 234 235 234 232 232 234 237 238 238 236 234 236 238 238 238 239 240 241 242 241 241 241 241
242 247 242 240 243 242 242 245 253 259 256 259 263 260 259 269 288 303 303 287 271 269 274 273 268 261 253 249 253 261 268 271 276 280 281 282 287 284 281 282 271 261 270 282 284 290 29 89 136 221 271 245 208 211 216 219 221 223 224 225 226 229 232 235 237 238 236 235 236 238 239 241 239 236 235 235 235 237 241 242 242 242 240 240 240 241
247 254 244 236 241 245 245 247 254 261 266 270 274 271 266 268 278 288 288 273 262 266 274 277 273 270 266 259 257 261 266 269 272 279 281 277 277 278 277 279 277 269 270 278 282 287 295 260 155 151 256 240 219 218 219 218 217 215 215 218 221 226 230 233 236 238 237 237 239 239 240 243 245 243 238 234 233 235 238 240 241 241 240 240 240 240
246 251 249 245 248 250 249 253 260 266 269 272 276 277 276 276 276 270 261 261 263 266 271 272 268 270 275 270 259 255 260 267 271 276 279 276 274 277 277 278 281 277 274 273 271 278 288 280 251 238 227 211 220 229 230 224 218 214 213 215 218 223 228 231 234 235 233 234 236 239 242 245 248 247 243 237 234 233 234 237 238 239 240 240 240 240
258 259 255 252 252 252 252 257 267 272 273 275 278 280 280 277 272 265 264 267 269 267 267 266 264 268 276 278 269 255 252 261 269 273 276 276 275 277 277 277 280 279 277 275 269 269 279 285 282 274 248 212 215 228 234 230 223 218 217 218 220 223 226 230 231 232 234 235 235 238 242 244 247 251 249 242 236 233 232 233 234 236 239 240 240 240
259 259 260 258 256 257 256 257 265 273 276 282 285 283 281 275 271 272 271 270 270 268 267 264 261 265 270 271 269 263 257 260 269 274 276 277 276 276 274 275 279 279 278 276 271 270 276 283 285 280 265 240 222 218 222 228 227 223 219 220 223 224 226 229 230 230 231 230 230 235 240 240 244 250 250 247 243 239 236 234 233 234 237 239 240 240
259 256 258 260 257 253 249 247 253 268 280 288 286 281 279 276 275 276 274 269 266 265 264 263 259 260 264 264 263 263 262 263 269 273 274 275 276 276 274 272 273 277 282 280 274 270 273 279 283 280 273 261 241 224 216 218 226 227 223 222 223 225 226 226 224 225 225 225 229 238 243 242 245 248 249 248 248 247 245 243 239 236 235 237 239 240
264 259 259 260 258 256 255 257 264 273 280 284 284 283 282 281 279 277 274 271 268 265 264 263 258 254 255 260 261 260 259 259 263 267 271 272 274 274 274 272 270 270 274 279 277 273 272 278 282 279 273 268 257 240 226 220 222 226 225 221 217 217 222 225 224 224 225 227 234 243 247 248 249 250 250 250 251 251 251 252 250 245 239 236 238 239
265 265 264 263 262 264 266 268 270 275 277 281 286 288 287 285 282 280 277 274 271 269 268 266 262 256 252 254 256 257 256 254 255 260 265 268 270 271 273 272 270 268 267 270 274 274 272 276 282 281 276 272 267 256 245 234 224 219 219 219 216 212 214 222 228 228 226 229 237 245 250 252 253 253 254 256 256 255 254 253 254 253 245 238 237 238
271 269 267 266 266 267 271 273 273 275 279 285 290 291 289 288 286 283 281 277 274 272 270 268 266 262 256 253 253 254 255 254 253 253 257 261 264 267 269 270 269 267 265 263 267 272 272 274 279 281 277 272 270 266 256 244 233 222 217 219 221 217 214 221 232 234 232 233 238 246 252 254 254 253 255 258 260 260 258 255 254 254 249 242 238 237
278 274 269 270 271 270 272 276 276 276 280 286 290 290 289 289 288 286 284 282 278 275 273 271 269 266 261 256 253 252 252 252 251 250 249 253 258 262 265 267 267 266 263 259 259 265 269 270 273 277 276 272 270 268 262 250 241 232 224 223 226 225 223 226 233 237 238 239 241 246 252 253 254 255 255 257 259 261 260 259 256 255 252 247 242 239
269 271 274 277 277 276 277 280 280 278 279 284 288 290 291 290 289 288 285 283 280 278 275 274 272 270 266 261 256 253 250 247 247 248 246 246 252 257 260 262 263 262 262 258 255 258 262 263 264 269 274 273 269 269 267 257 246 240 235 231 231 230 229 230 231 234 237 240 241 245 248 249 252 257 259 259 260 261 261 260 258 256 253 251 248 245
262 270 278 279 279 282 285 285 280 280 282 285 286 289 294 295 293 292 290 287 283 279 275 272 272 272 270 265 260 254 249 244 244 246 245 243 245 250 255 259 260 259 258 256 253 253 255 256 255 259 268 271 269 269 271 265 253 247 245 242 240 237 233 232 233 234 235 236 238 241 244 245 247 254 260 262 261 262 262 261 260 257 254 251 249 248
262 268 276 280 285 292 295 287 279 279 284 286 288 291 297 299 299 300 301 298 294 289 282 276 272 270 269 266 261 255 250 245 241 242 244 243 242 245 251 255 254 252 254 254 252 250 249 249 248 249 255 264 266 267 271 270 261 253 252 252 251 246 241 237 236 236 237 237 239 241 244 245 246 251 256 259 261 262 262 262 262 260 256 252 249 248
Height
3132 3132 3132 3132 3135 3137 3139 3140 3141 3143 3144 3144 3145 3146 3147 3147 3148 3150 3152 3152 3153 3152 3151 3152 3154 3155 3156 3157 3159 3159 3160 3160 3161 3162 3163 3164 3165 3165 3167 3169 3171 3173 3175 3178 3180 3183 3186 3188 3190 3191 3193 3194 3195 3197 3198 3200 3201 3203 3204 3206 3207 3208 3210 3211 3212 3214 3215 3216 3218 3219 3220 3221 3222 3224 3225 3226 3226 3227 3227 3227 3228 3228 3228 3229 3230 3230
3131 3130 3130 3132 3136 3138 3139 3140 3141 3142 3143 3144 3144 3145 3146 3147 3147 3149 3151 3151 3151 3150 3149 3151 3153 3154 3156 3157 3158 3158 3158 3157 3158 3159 3161 3162 3163 3164 3166 3168 3170 3173 3175 3177 3179 3181 3183 3186 3188 3190 3191 3192 3194 3195 3197 3199 3201 3202 3203 3205 3207 3208 3209 3210 3212 3214 3215 3217 3219 3220 3222 3222 3223 3225 3226 3226 3227 3227 3227 3228 3228 3229 3229 3230 3230 3231
3129 3128 3130 3134 3136 3137 3138 3139 3140 3141 3142 3143 3143 3144 3145 3146 3147 3148 3149 3149 3150 3148 3148 3149 3151 3153 3155 3157 3158 3157 3157 3157 3158 3159 3160 3161 3162 3164 3166 3168 3170 3172 3173 3175 3177 3179 3181 3184 3186 3188 3189 3191 3193 3195 3196 3198 3200 3201 3203 3204 3206 3207 3209 3210 3212 3213 3215 3217 3219 3221 3222 3223 3224 3225 3226 3226 3226 3227 3228 3228 3229 3229 3230 3230 3231 3231
3128 3128 3131 3135 3136 3136 3137 3138 3139 3140 3140 3141 3142 3142 3143 3146 3147 3147 3148 3148 3148 3148 3147 3147 3149 3151 3154 3156 3157 3157 3158 3159 3159 3160 3161 3162 3163 3164 3166 3168 3169 3170 3171 3173 3175 3177 3179 3182 3184 3186 3188 3190 3192 3193 3195 3197 3198 3200 3202 3203 3205 3206 3208 3210 3212 3213 3215 3217 3218 3220 3221 3222 3224 3225 3225 3225 3226 3226 3228 3228 3229 3230 3230 3231 3231 3232
3128 3129 3132 3134 3134 3135 3136 3137 3138 3138 3139 3139 3140 3139 3141 3145 3147 3147 3148 3148 3147 3147 3147 3147 3149 3149 3151 3154 3154 3155 3158 3158 3159 3160 3161 3162 3164 3165 3167 3168 3169 3169 3171 3172 3174 3175 3177 3180 3182 3184 3187 3189 3190 3192 3193 3196 3198 3199 3201 3203 3205 3206 3208 3209 3211 3213 3214 3215 3216 3218 3219 3220 3222 3223 3223 3225 3226 3226 3228 3229 3229 3230 3231 3232 3232 3232
3129 3131 3132 3133 3133 3134 3135 3135 3136 3137 3138 3138 3137 3138 3141 3145 3146 3146 3148 3149 3148 3147 3146 3148 3148 3146 3148 3151 3152 3155 3156 3156 3158 3158 3159 3161 3162 3164 3164 3165 3167 3169 3170 3172 3173 3175 3176 3178 3181 3183 3185 3187 3189 3191 3193 3195 3197 3199 3201 3203 3204 3206 3207 3209 3210 3212 3213 3214 3215 3216 3218 3219 3221 3222 3224 3225 3226 3227 3228 3229 3230 3230 3231 3232 3233 3233
3129 3130 3131 3132 3133 3133 3134 3134 3135 3137 3137 3136 3135 3137 3141 3144 3144 3145 3147 3148 3147 3146 3145 3147 3147 3145 3145 3147 3150 3153 3154 3155 3157 3156 3157 3159 3160 3160 3161 3163 3165 3167 3169 3171 3172 3174 3175 3177 3179 3181 3183 3185 3188 3190 3192 3194 3196 3198 3200 3202 3203 3205 3207 3208 3209 3211 3212 3213 3215 3216 3218 3220 3222 3223 3225 3226 3227 3228 3229 3230 3230 3231 3232 3233 3233 3234
3128 3129 3130 3130 3131 3132 3133 3133 3134 3136 3136 3134 3134 3138 3141 3142 3143 3144 3146 3147 3146 3145 3145 3145 3146 3145 3143 3144 3147 3151 3153 3154 3155 3154 3154 3156 3157 3158 3160 3161 3163 3165 3167 3169 3170 3172 3173 3175 3177 3180 3182 3184 3187 3190 3191 3193 3195 3197 3199 3201 3203 3204 3206 3207 3208 3210 3211 3213 3215 3216 3218 3220 3222 3224 3225 3226 3227 3228 3228 3229 3230 3231 3232 3233 3233 3234
3127 3128 3129 3130 3130 3130 3131 3132 3133 3135 3135 3133 3134 3138 3140 3141 3142 3143 3144 3145 3145 3145 3144 3144 3145 3146 3144 3143 3146 3149 3151 3152 3151 3150 3151 3152 3154 3157 3158 3160 3161 3163 3166 3168 3169 3170 3172 3174 3176 3179 3181 3184 3186 3188 3190 3192 3194 3196 3198 3200 3202 3203 3205 3206 3208 3209 3211 3212 3214 3216 3217 3219 3221 3223 3224 3225 3226 3227 3228 3229 3230 3231 3232 3233 3233 3234
3127 3128 3129 3129 3130 3130 3130 3131 3132 3133 3133 3132 3134 3137 3138 3140 3140 3141 3142 3143 3144 3143 3142 3142 3143 3145 3143 3142 3145 3147 3147 3146 3146 3147 3149 3150 3153 3155 3157 3158 3160 3162 3164 3166 3168 3170 3171 3173 3175 3178 3181 3183 3185 3187 3189 3191 3193 3195 3196 3198 3200 3202 3203 3205 3207 3208 3210 3211 3213 3215 3217 3219 3221 3222 3223 3224 3226 3227 3228 3229 3230 3231 3232 3233 3234 3235
3126 3128 3129 3128 3128 3129 3129 3129 3130 3131 3131 3131 3133 3135 3137 3138 3138 3139 3140 3141 3142 3141 3140 3140 3141 3142 3143 3141 3142 3142 3141 3141 3142 3145 3147 3149 3150 3151 3154 3156 3158 3160 3162 3164 3166 3169 3171 3173 3175 3177 3179 3181 3183 3185 3188 3190 3191 3193 3195 3197 3199 3200 3202 3204 3205 3207 3209 3210 3212 3214 3216 3218 3220 3221 3223 3224 3226 3227 3228 3230 3231 3232 3233 3233 3234 3235
3125 3127 3128 3127 3127 3128 3128 3128 3129 3129 3129 3130 3131 3132 3135 3136 3136 3137 3138 3139 3140 3140 3138 3138 3139 3142 3142 3140 3140 3139 3138 3140 3142 3143 3145 3146 3146 3148 3151 3153 3155 3157 3160 3163 3165 3167 3169 3170 3172 3174 3176 3178 3181 3183 3185 3187 3189 3191 3193 3195 3197 3198 3200 3202 3204 3206 3208 3209 3211 3213 3215 3217 3219 3220 3222 3224 3226 3227 3229 3230 3231 3232 3233 3234 3234 3235
3125 3126 3126 3126 3126 3127 3127 3127 3127 3128 3129 3129 3129 3131 3133 3134 3135 3136 3137 3137 3138 3137 3137 3137 3138 3141 3141 3139 3140 3139 3138 3141 3142 3142 3143 3144 3145 3147 3149 3151 3153 3156 3158 3160 3162 3164 3166 3167 3169 3171 3173 3176 3178 3180 3182 3184 3187 3189 3191 3193 3195 3197 3198 3200 3202 3204 3206 3208 3210 3212 3214 3216 3217 3219 3221 3223 3225 3227 3229 3230 3231 3232 3233 3234 3235 3236
3123 3124 3124 3125 3125 3126 3126 3125 3126 3127 3127 3128 3128 3129 3131 3132 3135 3137 3137 3137 3136 3136 3136 3137 3139 3140 3140 3139 3140 3138 3139 3141 3141 3141 3141 3142 3143 3145 3147 3150 3152 3154 3156 3159 3160 3162 3163 3165 3167 3169 3171 3173 3175 3178 3180 3183 3185 3187 3189 3191 3193 3195 3197 3198 3200 3203 3205 3207 3209 3211 3213 3215 3216 3218 3220 3222 3224 3226 3228 3229 3230 3232 3233 3234 3235 3236
3122 3123 3123 3124 3125 3126 3125 3125 3124 3125 3126 3127 3127 3128 3129 3130 3132 3134 3134 3134 3134 3134 3135 3137 3138 3138 3138 3139 3140 3138 3139 3141 3141 3140 3140 3140 3141 3143 3146 3149 3151 3153 3154 3156 3158 3159 3160 3163 3165 3167 3169 3172 3174 3176 3178 3181 3183 3185 3187 3189 3191 3193 3195 3197 3199 3201 3203 3205 3208 3209 3211 3213 3215 3217 3219 3221 3222 3224 3226 3228 3229 3231 3232 3234 3235 3236
3121 3122 3123 3124 3125 3125 3125 3124 3123 3124 3124 3125 3125 3126 3127 3128 3129 3130 3131 3131 3132 3133 3135 3135 3135 3135 3135 3137 3136 3134 3135 3137 3138 3139 3139 3139 3140 3142 3144 3146 3148 3149 3151 3153 3155 3156 3158 3160 3163 3165 3167 3169 3172 3174 3176 3178 3181 3183 3185 3188 3190 3191 3193 3195 3197 3199 3202 3204 3206 3208 3210 3212 3213 3215 3217 3219 3221 3223 3225 3226 3228 3230 3232 3233 3234 3234
3121 3122 3123 3124 3125 3125 3125 3124 3123 3123 3123 3124 3124 3124 3125 3126 3127 3128 3129 3129 3131 3133 3134 3134 3134 3133 3133 3133 3132 3131 3131 3132 3133 3135 3136 3137 3138 3139 3140 3142 3144 3146 3147 3149 3151 3153 3155 3157 3160 3162 3164 3167 3169 3172 3174 3176 3178 3181 3183 3186 3188 3190 3192 3193 3195 3198 3200 3202 3204 3206 3208 3210 3212 3214 3216 3218 3219 3221 3223 3225 3226 3228 3230 3231 3232 3233
3121 3121 3122 3123 3124 3125 3124 3124 3123 3123 3123 3123 3123 3123 3124 3125 3126 3127 3127 3128 3130 3133 3133 3132 3132 3133 3132 3131 3129 3128 3128 3129 3129 3130 3131 3134 3135 3135 3137 3139 3141 3142 3144 3146 3148 3151 3153 3155 3157 3159 3162 3164 3167 3169 3172 3175 3177 3180 3182 3185 3187 3189 3190 3191 3194 3196 3198 3200 3203 3205 3207 3208 3210 3212 3215 3217 3218 3220 3222 3223 3225 3226 3228 3229 3231 3232
3121 3121 3121 3122 3123 3123 3124 3123 3123 3123 3122 3122 3122 3122 3123 3124 3125 3125 3126 3127 3129 3131 3131 3130 3130 3132 3133 3131 3129 3127 3125 3125 3126 3127 3128 3129 3131 3132 3134 3136 3138 3140 3142 3144 3146 3148 3150 3152 3154 3157 3159 3162 3165 3168 3171 3174 3176 3178 3181 3183 3185 3187 3189 3191 3193 3194 3197 3199 3201 3203 3205 3207 3209 3211 3213 3215 3217 3218 3220 3222 3224 3225 3227 3228 3229 3231
3121 3121 3121 3121 3121 3122 3122 3123 3123 3123 3122 3122 3122 3122 3123 3124 3124 3125 3126 3127 3128 3129 3130 3128 3129 3133 3134 3132 3130 3128 3126 3124 3123 3124 3126 3127 3127 3128 3131 3134 3136 3137 3139 3141 3143 3145 3147 3150 3152 3154 3157 3160 3162 3165 3169 3171 3174 3176 3179 3181 3183 3186 3188 3190 3191 3193 3195 3197 3199 3201 3204 3206 3208 3210 3211 3213 3215 3216 3218 3221 3222 3224 3226 3227 3228 3229
3121 3121 3121 3120 3121 3122 3123 3124 3124 3124 3124 3123 3123 3123 3123 3124 3125 3125 3127 3128 3128 3129 3129 3129 3131 3134 3134 3132 3130 3128 3126 3125 3123 3122 3123 3125 3125 3125 3127 3130 3133 3135 3137 3138 3140 3142 3145 3148 3150 3153 3155 3158 3161 3163 3166 3169 3171 3174 3177 3179 3181 3184 3185 3187 3189 3191 3193 3195 3197 3199 3201 3203 3206 3208 3210 3211 3213 3215 3217 3219 3220 3222 3224 3225 3227 3228
3122 3121 3121 3120 3121 3122 3124 3125 3125 3126 3126 3125 3125 3126 3126 3126 3126 3127 3127 3128 3129 3130 3130 3131 3132 3133 3133 3132 3130 3128 3126 3125 3123 3122 3122 3122 3123 3123 3125 3127 3130 3133 3135 3137 3138 3141 3143 3146 3148 3151 3153 3155 3158 3160 3163 3166 3169 3171 3174 3176 3179 3181 3183 3185 3187 3189 3191 3194 3196 3197 3199 3202 3204 3206 3208 3209 3211 3213 3215 3217 3218 3220 3222 3223 3225 3227
3122 3122 3121 3122 3123 3124 3124 3124 3126 3126 3126 3127 3127 3127 3128 3128 3128 3129 3130 3129 3129 3130 3130 3131 3131 3130 3131 3130 3128 3127 3126 3124 3123 3122 3121 3121 3121 3122 3124 3126 3128 3131 3134 3136 3137 3139 3142 3144 3147 3149 3151 3153 3155 3157 3160 3163 3166 3169 3172 3174 3177 3179 3181 3183 3185 3188 3190 3192 3194 3196 3198 3200 3202 3203 3205 3207 3209 3211 3213 3215 3217 3218 3220 3222 3223 3225
3123 3122 3122 3123 3124 3124 3124 3124 3125 3126 3126 3127 3128 3128 3128 3129 3129 3130 3131 3130 3130 3130 3130 3131 3129 3127 3127 3127 3127 3126 3125 3123 3121 3120 3119 3119 3120 3121 3122 3124 3127 3130 3132 3134 3136 3138 3141 3143 3146 3147 3149 3151 3153 3155 3158 3161 3164 3167 3169 3172 3174 3176 3179 3181 3184 3186 3188 3190 3192 3194 3196 3198 3199 3201 3202 3204 3206 3209 3211 3213 3215 3216 3218 3220 3221 3223
3123 3123 3122 3122 3124 3126 3125 3125 3125 3125 3126 3127 3128 3128 3128 3129 3130 3130 3130 3130 3131 3131 3131 3131 3129 3126 3125 3125 3125 3124 3122 3120 3119 3118 3117 3116 3116 3117 3118 3120 3123 3127 3129 3131 3134 3136 3139 3142 3144 3145 3146 3148 3151 3154 3156 3159 3161 3164 3167 3170 3172 3174 3177 3179 3182 3184 3186 3188 3190 3192 3194 3195 3197 3198 3200 3202 3204 3206 3209 3211 3212 3214 3216 3217 3219 3220
3122 3123 3123 3123 3125 3127 3128 3128 3128 3126 3126 3126 3127 3128 3128 3128 3129 3129 3130 3130 3130 3130 3129 3129 3128 3125 3124 3123 3123 3122 3120 3118 3117 3116 3114 3113 3112 3113 3114 3116 3118 3121 3125 3128 3131 3134 3137 3139 3141 3143 3145 3147 3149 3152 3154 3157 3159 3162 3165 3168 3170 3173 3175 3177 3180 3182 3184 3186 3188 3190 3191 3193 3195 3196 3198 3200 3202 3204 3206 3208 3210 3211 3213 3215 3217 3218
3121 3122 3123 3123 3125 3127 3128 3129 3129 3128 3127 3126 3126 3126 3127 3128 3129 3129 3130 3130 3130 3129 3128 3127 3127 3124 3123 3122 3121 3121 3120 3118 3116 3114 3113 3111 3111 3110 3111 3113 3115 3118 3120 3124 3128 3131 3134 3137 3139 3141 3144 3146 3148 3151 3153 3155 3158 3160 3163 3165 3168 3171 3173 3175 3177 3179 3181 3183 3185 3187 3189 3191 3193 3194 3196 3198 3200 3202 3204 3205 3207 3209 3211 3213 3214 3216
3121 3122 3123 3124 3125 3126 3127 3128 3128 3128 3127 3127 3126 3126 3127 3128 3128 3129 3129 3130 3130 3129 3127 3126 3126 3124 3123 3122 3121 3121 3121 3119 3117 3115 3114 3113 3112 3111 3110 3111 3113 3116 3118 3120 3124 3127 3130 3133 3136 3139 3142 3144 3147 3149 3151 3153 3156 3158 3161 3163 3166 3168 3170 3173 3175 3177 3179 3181 3183 3185 3187 3189 3191 3193 3194 3196 3198 3200 3201 3202 3204 3206 3208 3210 3211 3213
3120 3121 3122 3124 3124 3125 3126 3127 3127 3127 3127 3126 3126 3126 3126 3127 3127 3128 3128 3128 3129 3128 3127 3125 3125 3124 3123 3122 3121 3121 3121 3120 3118 3116 3116 3115 3115 3113 3112 3111 3112 3114 3116 3118 3120 3123 3126 3130 3133 3136 3139 3142 3145 3147 3149 3151 3153 3156 3158 3160 3163 3165 3168 3170 3172 3174 3176 3178 3180 3182 3185 3187 3189 3191 3192 3194 3195 3197 3198 3200 3202 3203 3205 3207 3208 3211
3119 3121 3122 3123 3124 3124 3125 3125 3125 3125 3125 3125 3126 3127 3126 3126 3126 3126 3126 3127 3127 3126 3126 3125 3125 3125 3123 3122 3121 3121 3120 3120 3119 3118 3118 3117 3116 3114 3113 3113 3112 3113 3115 3117 3118 3121 3123 3126 3129 3132 3135 3138 3141 3144 3146 3148 3150 3153 3155 3157 3160 3162 3165 3167 3170 3172 3174 3175 3177 3180 3183 3185 3187 3189 3190 3192 3193 3195 3197 3198 3199 3201 3202 3204 3206 3208
3120 3122 3123 3123 3124 3124 3124 3124 3124 3124 3123 3123 3125 3126 3126 3125 3124 3124 3125 3125 3125 3124 3124 3124 3124 3124 3123 3121 3120 3120 3119 3119 3120 3119 3119 3118 3116 3115 3113 3112 3112 3112 3114 3116 3117 3119 3121 3123 3125 3128 3131 3134 3137 3140 3142 3144 3147 3149 3151 3154 3157 3159 3162 3164 3167 3169 3171 3173 3176 3178 3181 3182 3184 3186 3188 3190 3191 3193 3195 3196 3197 3198 3200 3201 3203 3205
3120 3122 3122 3123 3124 3123 3123 3123 3123 3123 3122 3122 3123 3124 3124 3123 3123 3123 3124 3123 3123 3123 3123 3123 3123 3123 3123 3121 3120 3119 3118 3119 3119 3120 3119 3118 3117 3116 3114 3112 3112 3112 3112 3114 3117 3118 3119 3121 3123 3125 3128 3131 3134 3137 3139 3141 3143 3145 3147 3150 3153 3156 3159 3161 3163 3166 3168 3171 3174 3176 3178 3180 3182 3184 3185 3187 3189 3191 3192 3194 3195 3196 3197 3199 3200 3202
3120 3121 3122 3123 3123 3122 3122 3122 3122 3122 3122 3121 3121 3122 3122 3122 3122 3122 3123 3122 3122 3122 3122 3122 3122 3122 3121 3120 3119 3118 3118 3119 3119 3119 3118 3118 3118 3117 3115 3112 3111 3111 3111 3112 3115 3117 3119 3119 3120 3122 3125 3128 3131 3133 3136 3138 3140 3142 3144 3147 3149 3152 3154 3157 3159 3162 3165 3168 3170 3173 3175 3177 3179 3180 3182 3184 3186 3188 3190 3191 3192 3193 3195 3197 3198 3199
3120 3120 3121 3122 3122 3122 3121 3121 3121 3121 3121 3121 3120 3120 3120 3120 3120 3121 3121 3121 3120 3121 3121 3121 3120 3119 3119 3119 3118 3117 3116 3118 3118 3117 3117 3117 3117 3117 3115 3113 3112 3111 3111 3112 3112 3114 3115 3117 3118 3120 3122 3125 3127 3130 3132 3135 3137 3139 3141 3144 3146 3149 3151 3153 3155 3157 3160 3164 3166 3169 3171 3173 3175 3177 3179 3181 3183 3185 3186 3187 3189 3191 3193 3194 3195 3196
3118 3119 3120 3121 3121 3121 3120 3121 3121 3120 3119 3119 3119 3119 3119 3119 3119 3120 3120 3120 3119 3119 3119 3119 3119 3118 3118 3117 3116 3115 3115 3115 3116 3116 3115 3115 3115 3115 3114 3113 3112 3112 3112 3112 3111 3111 3111 3113 3116 3118 3119 3122 3124 3126 3129 3131 3134 3136 3139 3141 3144 3146 3149 3151 3152 3154 3156 3158 3161 3164 3167 3169 3171 3174 3176 3178 3180 3182 3183 3184 3186 3188 3189 3191 3192 3193
3117 3118 3118 3119 3120 3120 3119 3120 3119 3118 3117 3117 3118 3118 3118 3118 3118 3118 3119 3118 3118 3117 3117 3117 3118 3118 3117 3116 3115 3114 3113 3113 3113 3113 3113 3113 3112 3113 3112 3112 3112 3113 3113 3113 3111 3109 3108 3109 3111 3113 3115 3118 3120 3122 3125 3128 3131 3134 3136 3138 3140 3143 3146 3148 3150 3152 3154 3155 3157 3158 3160 3163 3166 3169 3172 3174 3177 3178 3180 3181 3183 3184 3186 3187 3189 3190
3116 3116 3117 3118 3118 3118 3118 3117 3116 3115 3115 3116 3117 3117 3117 3117 3116 3116 3117 3116 3116 3116 3115 3115 3116 3116 3116 3115 3114 3113 3112 3111 3110 3110 3111 3111 3111 3111 3111 3111 3111 3111 3112 3113 3112 3110 3108 3108 3109 3110 3111 3112 3115 3118 3121 3124 3127 3130 3133 3135 3138 3140 3143 3145 3148 3149 3151 3153 3154 3155 3155 3156 3158 3162 3166 3169 3172 3174 3176 3178 3180 3181 3183 3183 3185 3186
3115 3115 3116 3116 3116 3117 3117 3116 3115 3115 3115 3115 3115 3115 3115 3115 3115 3115 3114 3114 3114 3114 3113 3113 3114 3114 3114 3114 3113 3112 3111 3110 3108 3108 3109 3110 3110 3110 3110 3110 3110 3110 3111 3112 3111 3110 3109 3109 3109 3110 3110 3110 3111 3114 3117 3119 3122 3126 3129 3132 3135 3137 3140 3143 3145 3147 3148 3150 3152 3153 3153 3152 3153 3156 3160 3164 3167 3170 3173 3175 3177 3178 3179 3180 3181 3183
3114 3114 3114 3115 3115 3115 3115 3115 3114 3114 3114 3113 3114 3114 3114 3114 3114 3114 3113 3112 3112 3112 3112 3112 3111 3111 3112 3112 3111 3110 3109 3108 3107 3106 3107 3108 3109 3109 3109 3110 3110 3111 3112 3111 3109 3109 3109 3109 3109 3110 3111 3110 3110 3111 3113 3115 3117 3120 3124 3127 3131 3134 3136 3139 3141 3144 3146 3148 3150 3151 3152 3152 3152 3153 3156 3159 3163 3166 3169 3171 3173 3175 3176 3177 3178 3179
3113 3113 3113 3113 3113 3113 3114 3113 3112 3112 3111 3111 3112 3112 3112 3112 3113 3113 3111 3109 3110 3110 3110 3110 3110 3109 3109 3110 3110 3109 3107 3106 3105 3104 3104 3105 3106 3107 3108 3108 3109 3111 3112 3111 3109 3108 3108 3109 3109 3109 3110 3110 3110 3110 3111 3112 3114 3116 3118 3122 3126 3130 3132 3135 3137 3140 3142 3144 3147 3149 3150 3151 3152 3153 3154 3156 3160 3163 3165 3167 3169 3171 3173 3174 3175 3176
3111 3111 3111 3111 3111 3112 3112 3111 3110 3109 3109 3109 3110 3110 3110 3111 3111 3110 3108 3106 3107 3108 3108 3108 3108 3108 3108 3108 3108 3108 3106 3104 3103 3102 3102 3102 3104 3105 3106 3107 3108 3109 3109 3108 3107 3108 3108 3109 3109 3108 3108 3108 3109 3109 3109 3111 3114 3114 3115 3119 3122 3126 3128 3131 3134 3137 3139 3141 3144 3147 3149 3150 3150 3152 3153 3156 3158 3160 3161 3164 3166 3168 3170 3171 3172 3173
3109 3109 3109 3109 3109 3109 3109 3108 3107 3106 3106 3107 3107 3107 3107 3108 3107 3106 3105 3104 3104 3105 3104 3105 3105 3106 3106 3106 3106 3106 3105 3103 3102 3101 3100 3100 3101 3103 3104 3105 3106 3107 3107 3106 3105 3105 3106 3108 3109 3108 3108 3107 3107 3108 3108 3110 3112 3113 3114 3116 3119 3122 3125 3129 3131 3134 3136 3138 3141 3143 3146 3148 3149 3150 3152 3154 3156 3157 3158 3160 3162 3164 3166 3168 3169 3169
3107 3107 3107 3106 3107 3107 3106 3106 3106 3104 3103 3104 3105 3105 3104 3104 3103 3102 3102 3102 3102 3101 3101 3101 3102 3102 3102 3102 3103 3103 3103 3102 3101 3100 3099 3098 3098 3099 3101 3102 3103 3104 3104 3104 3103 3102 3104 3106 3107 3107 3107 3107 3107 3107 3107 3108 3109 3111 3112 3113 3116 3119 3122 3125 3128 3130 3133 3135 3138 3141 3142 3144 3146 3147 3149 3151 3153 3154 3156 3157 3158 3160 3162 3164 3165 3166
3105 3104 3104 3104 3104 3104 3104 3103 3102 3101 3101 3102 3102 3102 3101 3101 3100 3099 3098 3098 3098 3098 3097 3097 3098 3099 3099 3098 3099 3099 3100 3100 3099 3098 3097 3096 3096 3096 3097 3098 3100 3100 3100 3101 3101 3101 3102 3104 3105 3106 3106 3106 3106 3105 3105 3106 3107 3108 3109 3111 3114 3116 3119 3121 3124 3126 3129 3133 3136 3138 3139 3141 3143 3145 3146 3148 3150 3151 3153 3154 3155 3156 3157 3159 3161 3162
3102 3102 3102 3102 3102 3101 3100 3100 3100 3100 3100 3099 3099 3098 3098 3097 3096 3095 3094 3093 3093 3093 3093 3093 3094 3095 3095 3094 3094 3094 3096 3097 3096 3095 3095 3094 3094 3094 3093 3094 3096 3097 3098 3098 3099 3100 3101 3102 3103 3104 3104 3104 3104 3104 3104 3104 3105 3106 3107 3109 3111 3113 3115 3118 3120 3123 3126 3129 3132 3134 3136 3137 3139 3141 3142 3144 3146 3148 3149 3151 3152 3153 3153 3155 3156 3158
3100 3100 3100 3100 3099 3099 3097 3097 3098 3098 3097 3097 3096 3095 3094 3093 3092 3091 3090 3089 3088 3088 3088 3088 3089 3090 3091 3091 3089 3090 3091 3092 3093 3092 3092 3092 3092 3092 3091 3091 3092 3094 3095 3096 3096 3097 3099 3099 3100 3101 3102 3102 3102 3102 3102 3102 3103 3104 3105 3106 3108 3110 3111 3114 3117 3119 3122 3124 3127 3129 3131 3133 3135 3137 3138 3140 3142 3143 3145 3146 3148 3149 3150 3150 3152 3153
3099 3098 3098 3097 3097 3096 3095 3095 3095 3095 3094 3094 3094 3092 3091 3090 3089 3088 3086 3085 3084 3084 3084 3084 3084 3085 3086 3086 3085 3085 3086 3087 3089 3089 3089 3089 3089 3090 3090 3089 3090 3090 3092 3093 3093 3094 3096 3097 3097 3098 3099 3100 3100 3100 3100 3100 3100 3101 3102 3104 3106 3107 3109 3112 3114 3116 3118 3120 3122 3125 3126 3128 3130 3132 3134 3135 3137 3139 3140 3142 3143 3144 3145 3146 3148 3149
3096 3096 3095 3094 3094 3093 3092 3093 3093 3092 3092 3092 3091 3090 3088 3087 3086 3085 3083 3081 3080 3079 3079 3079 3079 3079 3080 3081 3081 3080 3080 3082 3084 3085 3085 3086 3086 3087 3087 3087 3087 3087 3088 3090 3090 3091 3093 3095 3096 3096 3096 3096 3097 3097 3097 3097 3098 3099 3100 3102 3103 3105 3107 3110 3112 3113 3115 3117 3119 3121 3123 3124 3126 3128 3129 3131 3132 3134 3136 3138 3139 3140 3141 3142 3144 3145
3094 3093 3093 3092 3091 3090 3089 3090 3090 3089 3089 3089 3088 3086 3085 3084 3082 3082 3081 3079 3077 3075 3075 3074 3074 3074 3074 3076 3076 3075 3075 3076 3078 3079 3081 3082 3082 3083 3084 3085 3085 3085 3085 3086 3087 3088 3091 3093 3094 3095 3094 3094 3094 3095 3095 3095 3095 3096 3098 3099 3101 3102 3104 3106 3108 3110 3112 3114 3116 3119 3120 3121 3122 3122 3124 3126 3127 3129 3131 3133 3134 3136 3137 3138 3140 3141
3091 3090 3090 3089 3087 3086 3086 3087 3086 3084 3085 3086 3085 3084 3082 3080 3079 3078 3077 3075 3073 3072 3071 3070 3069 3069 3069 3070 3070 3070 3070 3071 3073 3074 3075 3077 3078 3079 3080 3081 3082 3082 3082 3082 3082 3084 3087 3090 3091 3092 3093 3093 3092 3092 3092 3092 3093 3093 3094 3096 3097 3099 3101 3103 3105 3107 3109 3111 3113 3115 3117 3118 3119 3119 3120 3121 3122 3124 3126 3128 3129 3131 3133 3134 3136 3137
3088 3088 3088 3086 3084 3083 3083 3084 3082 3081 3081 3082 3082 3081 3079 3077 3075 3074 3072 3071 3069 3068 3066 3065 3064 3064 3063 3064 3064 3064 3064 3066 3067 3068 3069 3071 3073 3074 3075 3077 3078 3078 3079 3079 3079 3080 3083 3086 3087 3088 3089 3090 3090 3089 3088 3088 3089 3090 3091 3092 3094 3096 3097 3099 3101 3103 3105 3107 3108 3110 3112 3113 3115 3116 3116 3117 3118 3120 3122 3123 3124 3126 3128 3130 3131 3133